Погода в Фелисово

Россия / Калужская область     54°35′50″N   36°27′28″E
темп.,
°C
ветер,
м/с
пор.,
м/с
влажн.,
%
обл.,
%
осадки,
мм/ч
давл.,
гПа
погр.,
м
12 мая, ср
ср1200:00+10юв26955 0.0 1025129
03:00+7ююв23940 0.0 102664
06:00+7юв11890 0.0 102630
09:00+12в357131 0.0 1026614
12:00+9св2490100 1.0 1024273
15:00+9з2496100 2.4 1020172
18:00+8ююз2598100 4.6 1019261
21:00+7юв37976 5.2 1020160
13 мая, чт
чт1300:00+5вюв38974 0.0 1020147
03:00+6в4109627 0.0 1019213
06:00+8вюв61593100 0.1 1018507
09:00+11вюв51188100 0.1 1018548
12:00+13юв368689 0.2 1016680
15:00+11зюз2398100 4.6 1015160
18:00+9ююз38933 12.4 1015567
21:00+7юв34955 12.4 101669
14 мая, пт
пт1400:00+7ююв33955 0.0 101751
03:00+6юв3494100 0.0 101760
06:00+8вюв3694100 0.0 1017142
09:00+13вюв468176 0.0 1017352
12:00+18вюв5773100 0.0 1015878
15:00+20юв5974100 1.6 10131156
18:00+18ююв51181100 3.0 1011432
21:00+15ююв3992100 3.1 1011143
15 мая, сб
сб1500:00+15ююв2488100 1.0 101072
03:00+14ююв3995100 2.3 1010191
06:00+14ююв3119549 1.7 1010362
09:00+17ю4985100 1.7 1009478
12:00+19ююв598421 1.8 1009907
15:00+20ююз58777 3.5 1008875
18:00+18ююз488399 3.5 1009446
21:00+14юз3792100 4.8 1009140
16 мая, вс
вс1600:00+12юз389568 0.0 1011177
03:00+10юз310973 0.0 1012280
06:00+9юз39951 0.0 1013316
09:00+14юз47793 0.0 1014676
12:00+18зюз566494 0.0 10151403
15:00+17з366888 0.1 1015854
18:00+19з2468100 0.0 1015869
21:00+13ссз1184100 0.0 101611